Погода в Родниках

Россия / Пермский край     59°33′24″N   56°44′18″E
темп.,
°C
ветер,
м/с
пор.,
м/с
влажн.,
%
обл.,
%
осадки,
мм/ч
давл.,
гПа
погр.,
м
9 мая, вс
вс923:00+10всв119351 1.7 101710
02:00+9св119215 0.0 101710
05:00+9в11905 0.0 101811
08:00+13вюв12725 0.0 1017169
11:00+18ююв34540 0.0 1017830
14:00+22ююв35371 0.0 10172357
17:00+22юв45339 0.0 10172638
20:00+18вюв25533 0.0 101795
10 мая, пн
пн1023:00+15юв386615 0.0 1018156
02:00+12юв23737 0.0 102050
05:00+10юв25784 0.0 102179
08:00+15ююв37615 0.0 1021264
11:00+21ююв45420 0.0 1021865
14:00+23ю46315 0.0 10222811
17:00+23юз463054 0.0 10222619
20:00+19юз2448100 0.0 102377
11 мая, вт
вт1123:00+15с1365100 0.0 102481
02:00+14зсз3678100 0.0 1025173
05:00+13юз1192100 0.6 102646
08:00+12сз2397100 2.7 1027264
11:00+14сз2377100 2.8 1028793
14:00+16сз3462100 0.0 10291124
17:00+18сз3446100 0.0 10281596
20:00+16ссз245588 0.0 1029110
12 мая, ср
ср1223:00+12с226098 0.0 103027
02:00+10с11615 0.0 103010
05:00+9зсз116535 0.0 103110
08:00+13зсз1252100 0.0 1031237
11:00+17зсз2342100 0.0 1031736
14:00+21зсз244359 0.0 10301603
17:00+22зсз354444 0.0 10291604
20:00+19зюз226018 0.0 102949
13 мая, чт
чт1323:00+15зюз2275100 0.0 102920
02:00+13з228177 0.0 102917
05:00+12з228696 0.0 103015
08:00+17зсз236942 0.0 1030249
11:00+22сз24515 0.0 10291124
14:00+24сз34380 0.0 10291915
17:00+25ссз23360 0.0 10282065
20:00+22ссв11500 0.0 102811